Location: Bannatyne
(13.0833°N, 59.5333°W)
Time: 14:21:41
(UTC+00:00)

Vanguard 2 Rocket - Pass Details

Date: 20 January 2020
Orbit: 554 x 3326 km, 32.9° (Epoch: 04 April)

Event Time Altitude Azimuth Distance (km) Brightness Sun altitude
Rises 12:16:40 0° 309° (NW) 3,739 9.5 23.9°
Reaches altitude 10° 12:19:41 10° 326° (NW) 3,128 9.2 24.5°
Maximum altitude 12:25:45 22° 15° (NNE) 2,977 9.5 25.8°
Drops below altitude 10° 12:34:37 10° 60° (ENE) 4,762 11.0 27.7°
Sets 12:40:46 0° 74° (ENE) 6,318 11.7 28.9°
